Satellite: PO-28
Catalog number: 22829
Epoch time:      08079.41120973
Element set:    0901
Inclination:      098.3542 deg
RA of node:       044.9164 deg
Eccentricity:    0.0010426
Arg of perigee:   131.3469 deg
Mean anomaly:     228.8611 deg
Mean motion:   14.30183328 rev/day
Decay rate:       -1.4e-07 rev/day^2
Epoch rev:           75529
Checksum:              299

Satellite: GO-32
Catalog number: 25397
Epoch time:      08079.89077601
Element set:    0556
Inclination:      098.3759 deg
RA of node:       119.4200 deg
Eccentricity:    0.0002007
Arg of perigee:   122.1231 deg
Mean anomaly:     238.0129 deg
Mean motion:   14.23139322 rev/day
Decay rate:      -1.43e-06 rev/day^2
Epoch rev:           50351
Checksum:              276

Satellite: MO-46
Catalog number: 26548
Epoch time:      08079.49472117
Element set:    0052
Inclination:      064.5575 deg
RA of node:       047.8049 deg
Eccentricity:    0.0019856
Arg of perigee:   336.2161 deg
Mean anomaly:     023.8017 deg
Mean motion:   14.83237786 rev/day
Decay rate:        5.8e-07 rev/day^2
Epoch rev:           40451
Checksum:              324

Satellite: NO-44
Catalog number: 26931
Epoch time:      08079.59138840
Element set:    0833
Inclination:      067.0524 deg
RA of node:       155.4666 deg
Eccentricity:    0.0005311
Arg of perigee:   274.5246 deg
Mean anomaly:     085.5245 deg
Mean motion:   14.29514192 rev/day
Decay rate:      -2.10e-06 rev/day^2
Epoch rev:           33760
Checksum:              302

Satellite: SO-50
Catalog number: 27607
Epoch time:      08079.69602459
Element set:    0557
Inclination:      064.5608 deg
RA of node:       325.4189 deg
Eccentricity:    0.0082185
Arg of perigee:   297.2926 deg
Mean anomaly:     061.9823 deg
Mean motion:   14.71336673 rev/day
Decay rate:        1.0e-08 rev/day^2
Epoch rev:           28180
Checksum:              333

Satellite: CO-55
Catalog number: 27844
Epoch time:      08080.26772065
Element set:     262
Inclination:      098.7182 deg
RA of node:       089.7611 deg
Eccentricity:    0.0010395
Arg of perigee:   017.6755 deg
Mean anomaly:     342.4810 deg
Mean motion:   14.20566756 rev/day
Decay rate:        6.6e-07 rev/day^2
Epoch rev:           24481
Checksum:              318

Satellite: CO-57
Catalog number: 27848
Epoch time:      08080.60611212
Element set:     215
Inclination:      098.7192 deg
RA of node:       089.2098 deg
Eccentricity:    0.0010234
Arg of perigee:   019.7877 deg
Mean anomaly:     340.3697 deg
Mean motion:   14.20378054 rev/day
Decay rate:        5.5e-07 rev/day^2
Epoch rev:           24483
Checksum:              313

Satellite: AO-51
Catalog number: 28375
Epoch time:      08080.49268022
Element set:      57
Inclination:      098.0811 deg
RA of node:       110.0163 deg
Eccentricity:    0.0085169
Arg of perigee:   061.7450 deg
Mean anomaly:     299.2307 deg
Mean motion:   14.40600349 rev/day
Decay rate:        1.2e-07 rev/day^2
Epoch rev:           19563
Checksum:              284

Satellite: CO-56
Catalog number: 28941
Epoch time:      08080.76520575
Element set:     922
Inclination:      098.1029 deg
RA of node:       179.7506 deg
Eccentricity:    0.0181499
Arg of perigee:   001.7559 deg
Mean anomaly:     358.4318 deg
Mean motion:   15.52229305 rev/day
Decay rate:     2.1670e-04 rev/day^2
Epoch rev:           11630
Checksum:              325

Satellite: CP4
Catalog number: 31122
Epoch time:      08080.66300125
Element set:     293
Inclination:      098.0472 deg
RA of node:       149.5098 deg
Eccentricity:    0.0084868
Arg of perigee:   243.4056 deg
Mean anomaly:     115.8407 deg
Mean motion:   14.55099640 rev/day
Decay rate:       5.49e-06 rev/day^2
Epoch rev:            4920
Checksum:              301

Satellite: CP3
Catalog number: 31128
Epoch time:      08079.88445982
Element set:    0288
Inclination:      098.0468 deg
RA of node:       147.0659 deg
Eccentricity:    0.0101802
Arg of perigee:   250.6354 deg
Mean anomaly:     108.3827 deg
Mean motion:   14.51923906 rev/day
Decay rate:       -4.8e-07 rev/day^2
Epoch rev:           04897
Checksum:              332

Satellite: LIBERT
Catalog number: 31129
Epoch time:      08080.75989907
Element set:     832
Inclination:      098.0462 deg
RA of node:       147.9353 deg
Eccentricity:    0.0101366
Arg of perigee:   247.9873 deg
Mean anomaly:     111.0523 deg
Mean motion:   14.52013326 rev/day
Decay rate:       3.36e-06 rev/day^2
Epoch rev:            4908
Checksum:              299

/EX
SB KEPS @ AMSAT  $ORB08080.W
Orbital Elements  08080.WEATHER

HR AMSAT ORBITAL ELEMENTS FOR WEATHER SATELLITES
FROM WA5QGD FORT WORTH,TX March 20, 2008
Send Subscribe/unsubscribe to KEPS at 
http://www.amsat.org/mailman/listinfo/keps
BID: ORB08080.W
TO ALL RADIO AMATEURS BT

Satellite: NOAA-10
Catalog number: 16969
Epoch time:      08080.12859353
Element set:      50
Inclination:      098.7298 deg
RA of node:       102.2475 deg
Eccentricity:    0.0013238
Arg of perigee:   081.5557 deg
Mean anomaly:     278.7119 deg
Mean motion:   14.27353551 rev/day
Decay rate:       -1.8e-07 rev/day^2
Epoch rev:           11873
Checksum:              313

